"Pseudo-MPEC" for C24KM72

Created 2020 Feb 19 7:07:06 UT using Find_Orb

Click here for an explanation of pseudo-MPECs

 
 Astrometry: 
     C24KM72  C2020 02 14.27850 08 26 00.06 +14 02 18.9    ~2E7M       VNEOCPG96
     C24KM72  C2020 02 14.28405 08 25 59.65 +13 58 51.7    ~2E7M       VNEOCPG96
     C24KM72  C2020 02 14.28962 08 25 59.33 +13 55 26.1    ~2E7M       VNEOCPG96

Station data:
(G96) Mt. Lemmon Survey  (N32.442754 W110.788720)  US/Arizona.  Observers T.
   A. Pruyne, B. M. Africano, E. J. Christensen, G. A. Farneth, D. C. Fuls,
   A. R. Gibbs, A. D. Grauer, H. Gröller, J. A. Johnson, R. A. Kowalski, S.
   M. Larson, G. J. Leonard, D. Rankin, R. L. Seaman, F. C. Shelly. 1.5-m
   reflector + 10K CCD.

Orbital elements:  C24KM72
   Perihelion 2020 Jan 30.686516 +/- 34.1 TT = 16:28:35 (JD 2458879.186516)
Epoch 2020 Feb 14.0 TT = JDT 2458893.5   Earth MOID: 0.0091   AutoNEOCP
M  12.20761636 +/- 24               (J2000 ecliptic)
n   0.85287526 +/- 0.444            Peri.  165.35632 +/- 59
a   1.10123254 +/- 0.382            Node   324.02672 +/- 35
e   0.0977751 +/- 0.251             Incl.    5.35248 +/- 10
P   1.16/422.09d      U 12.2  SR
q 0.99355935 +/- 0.241    Q 1.20890572 +/- 30.6
From 3 observations 2020 Feb. 14 (16.0 min); mean residual 0".46
Residuals in arcseconds: 
200214 G96  .20+  .42+    200214 G96  .40-  .83-    200214 G96  .20+  .42+    

Ephemerides (geocentric):
Date (UTC) HH   RA              Dec         delta   r     elong  " sig PA
---- -- -- --  -------------   -----------  ------ ------ -----  ---- ---
2020 02 19 07  08 42 23.688   -24 26 41.58  .01412 0.9990 138.4  59d  13
2020 02 19 08  08 42 29.951   -24 38 58.01  .01417 0.9990 138.3  59d  13
2020 02 19 09  08 42 36.193   -24 51 08.74  .01423 0.9991 138.1  59d  13
2020 02 19 10  08 42 42.413   -25 03 13.80  .01428 0.9991 137.9  59d  13
2020 02 19 11  08 42 48.611   -25 15 13.26  .01434 0.9991 137.8  59d  13
2020 02 19 12  08 42 54.789   -25 27 07.14  .01439 0.9991 137.6  59d  13
2020 02 19 13  08 43 00.945   -25 38 55.50  .01444 0.9992 137.5  59d  12
2020 02 19 14  08 43 07.081   -25 50 38.37  .01450 0.9992 137.3  59d  12
2020 02 19 15  08 43 13.196   -26 02 15.81  .01455 0.9992 137.1  59d  12
2020 02 19 16  08 43 19.290   -26 13 47.85  .01461 0.9992 137.0  59d  12
2020 02 19 17  08 43 25.364   -26 25 14.55  .01466 0.9992 136.8  59d  12
2020 02 19 18  08 43 31.418   -26 36 35.94  .01472 0.9993 136.7  59d  12
2020 02 19 19  08 43 37.452   -26 47 52.07  .01477 0.9993 136.5  59d  12
2020 02 19 20  08 43 43.466   -26 59 02.98  .01483 0.9993 136.4  59d  12
2020 02 19 21  08 43 49.460   -27 10 08.71  .01488 0.9993 136.2  59d  12
2020 02 19 22  08 43 55.434   -27 21 09.31  .01494 0.9994 136.1  59d  12
2020 02 19 23  08 44 01.390   -27 32 04.83  .01499 0.9994 135.9  58d  12
2020 02 20 00  08 44 07.325   -27 42 55.29  .01505 0.9994 135.8  58d  12
2020 02 20 01  08 44 13.242   -27 53 40.75  .01511 0.9994 135.6  58d  12
2020 02 20 02  08 44 19.140   -28 04 21.25  .01516 0.9994 135.5  58d  12
2020 02 20 03  08 44 25.019   -28 14 56.82  .01522 0.9995 135.3  58d  12
2020 02 20 04  08 44 30.879   -28 25 27.52  .01528 0.9995 135.2  58d  12
2020 02 20 05  08 44 36.721   -28 35 53.38  .01533 0.9995 135.0  58d  12
2020 02 20 06  08 44 42.544   -28 46 14.44  .01539 0.9995 134.9  58d  12
2020 02 20 07  08 44 48.349   -28 56 30.75  .01545 0.9996 134.7  58d  12
2020 02 20 08  08 44 54.136   -29 06 42.34  .01550 0.9996 134.6  58d  12
2020 02 20 09  08 44 59.904   -29 16 49.26  .01556 0.9996 134.5  58d  12
2020 02 20 10  08 45 05.655   -29 26 51.54  .01562 0.9996 134.3  57d  12
2020 02 20 11  08 45 11.389   -29 36 49.23  .01567 0.9997 134.2  57d  12
2020 02 20 12  08 45 17.104   -29 46 42.36  .01573 0.9997 134.1  57d  12
2020 02 20 13  08 45 22.803   -29 56 30.98  .01579 0.9997 133.9  57d  12
2020 02 20 14  08 45 28.484   -30 06 15.12  .01585 0.9997 133.8  57d  12
2020 02 20 15  08 45 34.147   -30 15 54.83  .01591 0.9997 133.7  57d  12
2020 02 20 16  08 45 39.794   -30 25 30.13  .01596 0.9998 133.5  57d  12
2020 02 20 17  08 45 45.424   -30 35 01.08  .01602 0.9998 133.4  57d  12
2020 02 20 18  08 45 51.037   -30 44 27.70  .01608 0.9998 133.3  57d  12
2020 02 20 19  08 45 56.634   -30 53 50.04  .01614 0.9998 133.1  57d  12
2020 02 20 20  08 46 02.213   -31 03 08.13  .01620 0.9999 133.0  57d  12
2020 02 20 21  08 46 07.777   -31 12 22.01  .01626 0.9999 132.9  57d  12
2020 02 20 22  08 46 13.324   -31 21 31.71  .01632 0.9999 132.8  56d  12
2020 02 20 23  08 46 18.855   -31 30 37.28  .01637 0.9999 132.6  56d  12
2020 02 21 00  08 46 24.370   -31 39 38.75  .01643 1.0000 132.5  56d  12
2020 02 21 01  08 46 29.870   -31 48 36.15  .01649 1.0000 132.4  56d  12
2020 02 21 02  08 46 35.353   -31 57 29.53  .01655 1.0000 132.3  56d  12
2020 02 21 03  08 46 40.821   -32 06 18.91  .01661 1.0000 132.1  56d  12
2020 02 21 04  08 46 46.273   -32 15 04.34  .01667 1.0001 132.0  56d  12
2020 02 21 05  08 46 51.710   -32 23 45.84  .01673 1.0001 131.9  56d  12
2020 02 21 06  08 46 57.132   -32 32 23.45  .01679 1.0001 131.8  56d  12